Location: Unspecified
(0.0000°N, 0.0000°E)
Time: 05:02:39
(UTC+00:00)

A-11 Canister half - Pass Details

Date: 18 September 2025
Orbit: 1526 x 1681 km, 47.3° (Epoch: 08 December)

Event Time Altitude Azimuth Distance (km) Brightness Sun altitude
Rises 19:22:11 0° 308° (NW) 4,911 12.5 -22.1°
Reaches altitude 10° 19:25:27 10° 303° (WNW) 3,931 11.9 -22.9°
Maximum altitude 19:35:09 51° 230° (SW) 2,023 9.8 -25.3°
Drops below altitude 10° 19:44:50 10° 157° (SSE) 3,910 10.9 -27.7°
Enters shadow 19:45:51 - 155° (SSE) 4,209 11.0 -28.0°
